When you browse on this site, cookies collect data to enhance your experience and personalize the content and advertising you see.
Visit our Privacy Policy to learn more. By continuing to use the site, you agree to this use of cookies and data.
  • Em Portugal
  • Lista de países
  • Para 7 dias
  • Temperatura da água
  • Mapas de satélite
  • Mapa do tempo
  • Widgets de tempo
  • user-avatar
    Iniciar Sessão

    Previsão horária em Nagasaqui

    Hoje, 16 Novembro, Sexta-feira

    Tempo Temperatura Precipitação Vento Pressão Humidade
    00:00 +13°C° 0 mm 4 m/s 764 mmHg 64%
    01:00 +12°C° 0 mm 4 m/s 764 mmHg 65%
    02:00 +12°C° 0 mm 4 m/s 764 mmHg 67%
    03:00 +12°C° 0 mm 5 m/s 763 mmHg 68%
    04:00 +12°C° 0 mm 5 m/s 763 mmHg 69%
    05:00 +12°C° 0 mm 5 m/s 763 mmHg 69%
    06:00 +12°C° 0 mm 5 m/s 763 mmHg 70%
    07:00 +12°C° 0.4 mm 5 m/s 763 mmHg 69%
    08:00 +13°C° 0.4 mm 5 m/s 763 mmHg 69%
    09:00 +14°C° 0 mm 4 m/s 763 mmHg 67%
    10:00 +14°C° 0.4 mm 5 m/s 762 mmHg 67%
    11:00 +14°C° 0.4 mm 6 m/s 762 mmHg 67%
    12:00 +15°C° 0.4 mm 6 m/s 761 mmHg 66%
    13:00 +14°C° 2.9 mm 7 m/s 761 mmHg 72%
    14:00 +14°C° 2.9 mm 7 m/s 761 mmHg 78%
    15:00 +14°C° 0 mm 6 m/s 760 mmHg 81%
    16:00 +12°C° 2.2 mm 7 m/s 760 mmHg 84%
    17:00 +12°C° 2.2 mm 8 m/s 760 mmHg 87%
    18:00 +12°C° 2.2 mm 9 m/s 760 mmHg 90%
    19:00 +12°C° 0.3 mm 9 m/s 760 mmHg 88%
    20:00 +12°C° 0.3 mm 9 m/s 760 mmHg 87%
    21:00 +12°C° 0 mm 7 m/s 760 mmHg 86%
    22:00 +12°C° 0.3 mm 7 m/s 760 mmHg 87%
    23:00 +12°C° 0.3 mm 7 m/s 760 mmHg 87%

    Amanhã, 17 Novembro, Sábado

    Tempo Temperatura Precipitação Vento Pressão Humidade
    00:00 +12°C° 0.3 mm 7 m/s 760 mmHg 87%
    01:00 +12°C° 0 mm 7 m/s 760 mmHg 88%
    02:00 +12°C° 0 mm 7 m/s 760 mmHg 88%
    03:00 +11°C° 0 mm 7 m/s 760 mmHg 89%
    04:00 +11°C° 0 mm 7 m/s 761 mmHg 87%
    05:00 +11°C° 0 mm 7 m/s 761 mmHg 86%
    06:00 +11°C° 0 mm 8 m/s 761 mmHg 84%
    07:00 +12°C° 0 mm 7 m/s 761 mmHg 81%
    08:00 +14°C° 0 mm 7 m/s 761 mmHg 78%
    09:00 +15°C° 0 mm 7 m/s 761 mmHg 75%
    10:00 +16°C° 0 mm 7 m/s 761 mmHg 70%
    11:00 +17°C° 0 mm 6 m/s 761 mmHg 65%
    12:00 +19°C° 0 mm 6 m/s 761 mmHg 60%
    13:00 +19°C° 0 mm 6 m/s 761 mmHg 57%
    14:00 +19°C° 0 mm 6 m/s 761 mmHg 53%
    15:00 +20°C° 0 mm 6 m/s 761 mmHg 49%
    16:00 +17°C° 0 mm 6 m/s 761 mmHg 54%
    17:00 +16°C° 0 mm 6 m/s 761 mmHg 59%
    18:00 +15°C° 0 mm 6 m/s 762 mmHg 64%
    19:00 +15°C° 0 mm 6 m/s 762 mmHg 68%
    20:00 +14°C° 0 mm 6 m/s 762 mmHg 72%
    21:00 +14°C° 0 mm 6 m/s 762 mmHg 75%
    22:00 +13°C° 0 mm 6 m/s 762 mmHg 77%
    23:00 +13°C° 0 mm 5 m/s 762 mmHg 79%

    Depois de amanhã, 18 Novembro, Domingo

    Tempo Temperatura Precipitação Vento Pressão Humidade
    00:00 +13°C° 0 mm 5 m/s 762 mmHg 80%
    01:00 +13°C° 0 mm 5 m/s 762 mmHg 82%
    02:00 +13°C° 0 mm 5 m/s 762 mmHg 83%
    03:00 +12°C° 0 mm 5 m/s 762 mmHg 85%
    04:00 +12°C° 0 mm 5 m/s 762 mmHg 85%
    05:00 +12°C° 0 mm 5 m/s 762 mmHg 85%
    06:00 +12°C° 0 mm 5 m/s 762 mmHg 85%
    07:00 +13°C° 0 mm 4 m/s 762 mmHg 80%
    08:00 +14°C° 0 mm 4 m/s 763 mmHg 74%
    09:00 +16°C° 0 mm 3 m/s 763 mmHg 68%
    10:00 +17°C° 0 mm 3 m/s 763 mmHg 61%
    11:00 +18°C° 0 mm 2 m/s 762 mmHg 54%
    12:00 +20°C° 0 mm 2 m/s 762 mmHg 47%
    13:00 +20°C° 0 mm 2 m/s 762 mmHg 45%
    14:00 +20°C° 0 mm 2 m/s 761 mmHg 44%
    15:00 +20°C° 0 mm 2 m/s 761 mmHg 42%
    16:00 +19°C° 0 mm 2 m/s 761 mmHg 47%
    17:00 +18°C° 0 mm 3 m/s 761 mmHg 51%
    18:00 +17°C° 0 mm 4 m/s 761 mmHg 55%
    19:00 +15°C° 0 mm 4 m/s 762 mmHg 57%
    20:00 +15°C° 0 mm 4 m/s 762 mmHg 58%
    21:00 +15°C° 0 mm 4 m/s 762 mmHg 59%
    22:00 +15°C° 0.2 mm 4 m/s 762 mmHg 62%
    23:00 +14°C° 0.2 mm 4 m/s 762 mmHg 65%

    19 Novembro, Segunda-feira

    Tempo Temperatura Precipitação Vento Pressão Humidade
    00:00 +14°C° 0.2 mm 4 m/s 762 mmHg 68%
    01:00 +14°C° 0.2 mm 5 m/s 762 mmHg 71%
    02:00 +13°C° 0.2 mm 5 m/s 762 mmHg 74%
    03:00 +13°C° 0.2 mm 5 m/s 762 mmHg 77%
    04:00 +13°C° 0.1 mm 5 m/s 762 mmHg 76%
    05:00 +13°C° 0.1 mm 5 m/s 762 mmHg 74%
    06:00 +13°C° 0.1 mm 4 m/s 762 mmHg 73%
    07:00 +13°C° 0 mm 5 m/s 763 mmHg 70%
    08:00 +13°C° 0 mm 5 m/s 763 mmHg 67%
    09:00 +14°C° 0 mm 5 m/s 764 mmHg 64%
    10:00 +15°C° 0 mm 5 m/s 764 mmHg 60%
    11:00 +16°C° 0 mm 6 m/s 763 mmHg 55%
    12:00 +17°C° 0 mm 6 m/s 763 mmHg 51%
    13:00 +17°C° 0 mm 6 m/s 763 mmHg 51%
    14:00 +16°C° 0 mm 7 m/s 763 mmHg 52%
    15:00 +16°C° 0 mm 7 m/s 763 mmHg 52%
    16:00 +15°C° 0 mm 7 m/s 763 mmHg 53%
    17:00 +14°C° 0 mm 7 m/s 763 mmHg 54%
    18:00 +12°C° 0 mm 8 m/s 763 mmHg 55%
    19:00 +12°C° 0 mm 7 m/s 764 mmHg 56%
    20:00 +11°C° 0 mm 7 m/s 764 mmHg 56%
    21:00 +11°C° 0 mm 7 m/s 765 mmHg 57%
    22:00 +11°C° 0 mm 7 m/s 764 mmHg 58%
    23:00 +11°C° 0 mm 6 m/s 764 mmHg 59%

    20 Novembro, Terça-feira

    Tempo Temperatura Precipitação Vento Pressão Humidade
    00:00 +10°C° 0 mm 6 m/s 764 mmHg 61%
    01:00 +10°C° 0 mm 6 m/s 764 mmHg 62%
    02:00 +10°C° 0 mm 6 m/s 764 mmHg 62%
    03:00 +10°C° 0 mm 6 m/s 764 mmHg 63%
    04:00 +10°C° 0 mm 6 m/s 764 mmHg 64%
    05:00 +10°C° 0 mm 5 m/s 764 mmHg 65%
    06:00 +9°C° 0 mm 5 m/s 764 mmHg 66%
    07:00 +10°C° 0 mm 5 m/s 765 mmHg 62%
    08:00 +12°C° 0 mm 5 m/s 765 mmHg 59%
    09:00 +13°C° 0 mm 4 m/s 766 mmHg 55%
    10:00 +14°C° 0 mm 4 m/s 765 mmHg 54%
    11:00 +14°C° 0 mm 4 m/s 765 mmHg 53%
    12:00 +14°C° 0 mm 4 m/s 765 mmHg 53%
    13:00 +15°C° 0 mm 4 m/s 765 mmHg 53%
    14:00 +15°C° 0 mm 4 m/s 765 mmHg 52%
    15:00 +17°C° 0 mm 4 m/s 765 mmHg 52%
    16:00 +15°C° 0 mm 5 m/s 765 mmHg 54%
    17:00 +14°C° 0 mm 5 m/s 765 mmHg 55%
    18:00 +13°C° 0 mm 5 m/s 765 mmHg 57%
    19:00 +13°C° 0 mm 5 m/s 765 mmHg 56%
    20:00 +12°C° 0 mm 5 m/s 765 mmHg 55%
    21:00 +12°C° 0 mm 5 m/s 765 mmHg 53%
    22:00 +10°C° 0 mm 5 m/s 765 mmHg 54%
    23:00 +11°C° 0 mm 4 m/s 765 mmHg 55%

    21 Novembro, Quarta-feira

    Tempo Temperatura Precipitação Vento Pressão Humidade
    00:00 +11°C° 0 mm 4 m/s 765 mmHg 56%
    01:00 +10°C° 0 mm 4 m/s 765 mmHg 57%
    02:00 +10°C° 0 mm 3 m/s 765 mmHg 59%
    03:00 +10°C° 0 mm 3 m/s 764 mmHg 61%
    04:00 +10°C° 0 mm 3 m/s 764 mmHg 62%
    05:00 +10°C° 0 mm 3 m/s 764 mmHg 64%
    06:00 +10°C° 0 mm 3 m/s 764 mmHg 66%
    07:00 +11°C° 0 mm 3 m/s 764 mmHg 62%
    08:00 +12°C° 0 mm 3 m/s 765 mmHg 58%
    09:00 +13°C° 0 mm 3 m/s 765 mmHg 53%
    10:00 +14°C° 0 mm 3 m/s 765 mmHg 48%
    11:00 +17°C° 0 mm 3 m/s 764 mmHg 43%
    12:00 +18°C° 0 mm 4 m/s 764 mmHg 37%
    13:00 +18°C° 0 mm 4 m/s 763 mmHg 39%
    14:00 +17°C° 0 mm 5 m/s 763 mmHg 41%
    15:00 +17°C° 0 mm 6 m/s 763 mmHg 43%
    16:00 +16°C° 0 mm 6 m/s 763 mmHg 47%
    17:00 +15°C° 0 mm 7 m/s 763 mmHg 51%
    18:00 +14°C° 0 mm 7 m/s 764 mmHg 55%
    19:00 +12°C° 0 mm 7 m/s 764 mmHg 55%
    20:00 +12°C° 0 mm 7 m/s 764 mmHg 56%
    21:00 +11°C° 0 mm 7 m/s 765 mmHg 56%
    22:00 +11°C° 0 mm 7 m/s 764 mmHg 56%
    23:00 +11°C° 0 mm 7 m/s 764 mmHg 56%
    Mostrar mais